Location: Ward Pound Ridge Reservation
(41.2500°N, 73.6000°W)
Time: 12:10:28
(UTC-05:00)

Vanguard 1 - All Passes

Search period start: 21 February 2018 00:00
Search period end: 03 March 2018 00:00
Orbit: 650 x 3833 km, 34.2° (Epoch: 21 February)

Date Brightness Start Highest point End Pass type
(mag) Time Alt. Az. Time Alt. Az. Time Alt. Az.
21 Feb - 11:59:55 10° SSW 12:12:46 25° SSE 12:21:22 10° ESE daylight
21 Feb - 14:22:05 10° SW 14:35:01 44° SSE 14:42:17 10° E daylight
21 Feb - 16:46:46 10° WSW 16:55:54 50° S 17:01:18 10° ESE daylight
21 Feb - 19:10:37 10° W 19:15:22 23° SSW 19:19:04 10° SSE visible
22 Feb - 10:05:22 10° SSE 10:10:44 12° SE 10:15:30 10° SE daylight
22 Feb - 12:19:29 10° SSW 12:33:56 31° SSE 12:43:00 10° E daylight
22 Feb - 14:43:05 10° WSW 14:56:04 50° S 15:03:13 10° E daylight
22 Feb - 17:08:04 10° W 17:16:45 47° SSW 17:21:59 10° ESE daylight
22 Feb - 19:32:20 10° WSW 19:35:55 17° SSW 19:38:57 10° S visible
23 Feb - 10:20:53 10° S 10:31:56 18° SE 10:40:33 10° ESE daylight
23 Feb - 12:39:37 10° SW 12:55:05 38° SSE 13:04:19 10° E daylight
23 Feb - 15:04:16 10° WSW 15:17:05 54° S 15:24:04 10° E daylight
23 Feb - 17:29:25 10° W 17:37:33 42° SSW 17:42:36 10° SE daylight
23 Feb - 19:55:01 10° SW 19:56:24 11° SW 19:57:43 10° SSW visible
24 Feb - 10:38:56 10° S 10:53:07 24° SSE 11:03:20 10° ESE daylight
24 Feb - 13:00:09 10° SW 13:16:15 45° SSE 13:25:25 10° E daylight
24 Feb - 15:25:36 10° WSW 15:38:05 56° S 15:44:51 10° ESE daylight
24 Feb - 17:50:49 10° W 17:58:14 35° SSW 18:03:03 10° SE daylight
25 Feb - 10:58:00 10° SSW 11:14:17 30° SSE 11:25:17 10° E daylight
25 Feb - 13:21:00 10° SW 13:37:22 51° SSE 13:46:26 10° E daylight
25 Feb - 15:47:01 10° W 15:59:02 56° S 16:05:37 10° ESE daylight
25 Feb - 18:12:20 10° W 18:18:51 27° SSW 18:23:19 10° SSE visible
26 Feb - 09:01:45 10° SSE 09:11:49 15° SE 09:20:24 10° ESE daylight
26 Feb - 11:17:44 10° SSW 11:35:28 37° SSE 11:46:49 10° E daylight
26 Feb - 13:42:08 10° WSW 13:58:29 56° S 14:07:20 10° E daylight
26 Feb - 16:08:28 10° W 16:19:57 53° SSW 16:26:18 10° ESE daylight
26 Feb - 18:34:04 10° W 18:39:19 20° SW 18:43:14 10° S visible
27 Feb - 09:18:39 10° S 09:32:54 21° SE 09:44:13 10° E daylight
27 Feb - 11:37:58 10° SW 11:56:39 44° SSE 12:08:05 10° E daylight
27 Feb - 14:03:27 10° WSW 14:19:35 60° S 14:28:11 10° E daylight
27 Feb - 16:29:57 10° W 16:40:46 47° SSW 16:46:54 10° SE daylight
27 Feb - 18:56:23 10° WSW 18:59:43 14° SW 19:02:29 10° SSW visible
28 Feb - 09:37:04 10° SSW 09:54:00 28° SE 10:06:42 10° E daylight
28 Feb - 11:58:36 10° SW 12:17:50 50° SSE 12:29:12 10° E daylight
28 Feb - 14:24:54 10° WSW 14:40:39 61° S 14:49:01 10° ESE daylight
28 Feb - 16:51:29 10° W 17:01:28 40° SSW 17:07:21 10° SE daylight
01 Mar - 07:45:33 10° SSE 07:51:25 11° SE 07:56:57 10° ESE daylight
01 Mar - 09:56:20 10° SSW 10:15:07 35° SSE 10:28:35 10° E daylight
01 Mar - 12:19:32 10° WSW 12:39:01 56° SSE 12:50:12 10° E daylight
01 Mar - 14:46:25 10° W 15:01:41 61° S 15:09:47 10° ESE daylight
01 Mar - 17:13:06 10° W 17:22:03 32° SSW 17:27:37 10° SSE daylight
02 Mar - 07:59:47 10° S 08:12:21 18° SE 08:23:27 10° ESE daylight
02 Mar - 10:16:10 10° SSW 10:36:16 41° SSE 10:50:05 10° E daylight
02 Mar - 12:40:43 10° WSW 13:00:14 61° S 13:11:09 10° E daylight
02 Mar - 15:08:00 10° W 15:22:39 57° SSW 15:30:29 10° ESE daylight
02 Mar - 17:34:53 10° W 17:42:31 25° SW 17:47:36 10° SSE daylight
